Wind_Speed
56 54 51 49 50 51 50 49 48 46 43 43 41 36 32 30 29 28 25 24 24 23 23 23 26 29 31 32 33 32 31 30 29 28 25 23 20 19 19 19 14 10 8 5 7 5 7 11 13 13 14 16 16 16 16 18 19 18 18 20 23 25 26 26 26 25 25 25 24 23 21 20 19 19 20 20 20 20 20 20 20 20 20 20 20 19
59 55 53 54 55 55 52 51 49 47 46 44 42 38 34 33 31 28 26 24 23 21 19 20 22 25 28 29 30 29 29 30 29 26 23 21 19 20 22 20 15 13 10 7 7 6 7 11 13 14 14 16 17 17 17 17 19 19 19 20 21 23 25 25 25 25 24 24 23 22 20 18 18 17 17 17 17 17 17 17 17 17 17 17 17 17
61 58 59 59 58 56 55 53 51 50 49 46 44 41 38 36 33 31 29 26 24 21 18 19 21 23 25 28 29 29 30 29 27 25 23 21 20 23 25 22 17 15 13 9 8 8 8 11 13 14 14 16 18 19 19 19 19 20 19 19 19 20 22 23 23 23 23 23 22 20 19 17 16 16 16 16 16 16 16 15 15 15 15 15 15 15
63 63 65 63 60 60 58 56 53 53 51 48 46 45 42 40 37 35 32 28 27 23 20 19 20 21 23 26 29 30 30 28 27 26 25 23 25 28 29 25 21 19 16 13 10 9 10 11 14 16 16 17 20 21 20 20 20 20 20 19 18 18 19 20 21 21 21 21 20 19 18 16 15 14 14 15 15 15 15 14 13 13 13 13 13 13
67 68 68 65 64 65 63 59 56 54 53 51 49 48 46 44 41 38 34 32 31 26 21 19 18 19 22 26 30 31 30 29 29 29 28 28 31 34 31 26 23 20 18 16 13 12 11 12 14 17 18 18 19 20 20 19 19 20 20 19 18 18 18 18 18 19 19 19 19 18 16 15 14 14 13 13 14 14 13 13 12 12 12 12 12 12
71 72 70 67 69 69 64 61 59 57 56 54 52 51 49 47 44 39 36 36 34 28 22 19 18 19 22 26 29 30 30 30 32 32 30 31 34 35 31 26 23 20 19 17 14 13 13 13 15 17 18 17 17 19 19 19 19 19 20 20 19 19 18 18 18 18 18 18 18 16 14 14 14 14 13 13 12 12 12 12 11 11 11 11 11 11
73 74 71 70 72 70 65 63 61 59 57 56 55 54 52 50 47 42 39 39 36 30 24 21 20 20 22 25 29 30 31 33 34 32 30 32 34 33 29 26 24 22 20 18 16 14 13 13 15 16 17 16 16 18 20 21 21 20 20 21 21 20 18 18 18 18 18 17 16 13 11 11 11 11 11 11 11 11 10 10 10 10 10 10 10 11
75 75 74 73 74 71 67 65 63 61 59 58 58 56 55 53 50 45 42 41 37 32 27 25 23 20 21 25 28 31 32 34 34 32 33 35 34 32 30 27 25 23 22 20 18 15 15 14 15 16 17 17 17 18 20 22 22 21 20 20 20 20 19 19 18 17 17 16 14 11 9 8 8 8 8 8 9 9 9 8 9 9 9 9 9 9
78 77 76 76 76 73 70 68 67 65 63 62 61 60 59 57 52 48 44 42 39 34 29 27 23 20 21 24 28 32 34 34 33 34 35 37 35 33 31 28 26 24 22 21 20 17 16 16 16 17 17 18 19 19 19 21 22 21 20 20 19 19 19 19 18 17 15 14 12 11 9 8 8 7 7 7 7 7 7 6 7 7 7 7 7 7
80 80 79 79 78 75 73 73 72 69 66 66 65 63 63 59 54 49 45 43 41 35 30 28 25 23 22 23 28 32 34 34 35 36 37 37 35 34 32 29 27 25 23 23 21 19 17 17 17 18 18 19 20 19 18 19 21 22 22 21 20 19 19 18 17 16 15 13 11 10 10 9 8 7 7 6 5 5 5 5 5 5 4 4 4 5
81 82 80 80 79 77 76 76 75 72 70 70 67 66 65 61 56 51 46 45 42 36 32 30 29 26 22 22 26 31 34 36 37 39 39 38 36 34 32 31 29 26 25 23 22 21 19 18 18 18 19 19 20 20 19 19 20 22 23 23 21 20 19 18 18 16 15 13 12 11 10 9 8 8 7 6 4 3 3 2 2 3 3 3 2 2
84 83 81 81 81 80 78 78 77 75 74 72 69 69 67 63 59 54 49 46 41 38 36 34 32 28 23 24 27 31 34 36 38 40 40 39 37 34 33 31 30 27 25 24 23 22 21 19 17 17 18 19 20 21 21 20 20 20 21 22 22 22 21 20 19 17 15 14 13 13 12 10 10 9 8 7 6 4 2 2 1 0 1 1 2 2
88 86 84 84 84 83 81 80 78 77 76 73 71 72 69 65 61 55 51 45 39 40 41 38 35 30 28 29 30 32 34 35 36 38 39 38 36 34 33 31 29 27 25 23 22 22 21 20 18 17 17 18 18 19 19 19 19 19 20 20 21 22 22 22 20 18 16 15 15 14 13 12 11 10 9 9 7 6 5 4 3 2 2 2 2 3
93 90 89 87 86 85 83 81 79 78 76 74 74 74 71 66 63 57 52 46 42 43 45 42 38 34 33 32 32 35 36 35 37 38 39 38 36 35 34 32 29 28 26 24 22 22 23 22 20 18 17 17 17 17 18 18 18 19 19 19 19 20 22 22 22 20 19 18 17 16 15 14 13 12 11 10 9 9 8 7 6 5 4 4 4 5
98 96 93 89 87 86 85 83 81 80 78 76 76 77 74 69 66 62 56 51 47 47 49 47 41 39 38 35 36 39 37 36 38 40 40 39 37 36 35 32 30 29 28 26 24 23 23 23 22 21 19 17 17 17 18 18 18 19 19 19 18 19 20 21 21 21 20 19 19 18 17 16 15 14 13 13 12 11 11 10 9 8 7 7 7 7
102 101 97 93 89 87 87 86 85 83 80 79 79 80 77 72 69 67 62 56 52 51 52 49 44 44 43 39 40 41 37 37 40 41 41 40 39 37 36 34 33 32 31 29 27 25 24 24 24 23 21 19 18 18 18 18 18 19 19 18 18 19 19 19 19 19 19 20 20 19 18 17 17 16 16 15 13 13 13 12 12 11 10 10 10 9
104 105 102 96 92 90 90 89 87 84 81 81 82 81 78 75 72 70 66 60 56 54 52 51 49 49 48 44 44 44 41 40 41 42 43 42 40 39 37 36 35 34 33 31 30 28 26 25 23 23 22 21 20 19 18 18 18 17 18 18 18 19 19 19 19 18 19 20 20 20 19 18 18 18 17 16 15 15 15 15 14 14 13 13 13 12
106 107 104 98 95 94 92 91 89 87 85 84 83 82 80 78 74 72 69 63 59 56 54 55 55 53 52 51 50 49 46 43 42 43 44 44 43 41 40 39 37 36 35 33 31 30 28 27 25 23 22 22 21 20 19 18 18 18 18 18 18 19 20 19 18 18 19 20 20 21 20 20 19 19 18 17 17 18 18 17 17 16 15 16 15 14
107 107 105 102 101 97 95 95 93 91 89 87 85 84 82 79 76 74 70 64 60 58 55 57 58 55 56 56 53 51 50 46 45 44 44 45 44 43 43 42 40 38 36 35 33 32 31 29 27 25 22 21 22 22 21 20 20 20 19 19 19 20 19 19 18 18 19 20 20 21 21 21 20 19 19 19 20 20 20 19 18 17 18 18 17 16
107 108 107 106 106 102 101 100 97 93 92 90 88 85 83 81 79 76 73 68 63 61 58 58 59 57 59 61 56 54 54 50 48 47 45 45 45 45 46 44 43 41 39 37 35 34 33 31 29 27 24 22 21 21 22 22 21 21 20 19 19 19 19 19 19 20 21 22 22 21 21 22 21 20 20 21 22 21 20 20 19 19 20 19 18 18
108 109 109 110 109 107 106 104 100 97 96 93 90 86 84 83 81 79 77 72 66 64 62 61 61 60 62 64 60 57 57 54 52 51 48 46 46 47 47 47 46 44 42 40 38 36 35 33 31 29 27 25 23 21 21 23 23 22 21 21 20 19 19 20 21 21 22 22 22 22 23 23 22 21 21 21 22 21 21 20 20 20 20 19 19 18
109 109 110 111 110 110 110 108 104 101 99 96 90 87 86 85 83 81 78 74 69 66 64 64 64 65 64 65 64 61 61 59 56 55 53 50 49 49 49 49 48 46 44 42 40 38 36 34 33 31 28 27 26 25 23 22 23 24 23 22 21 20 20 20 21 22 22 22 22 22 23 23 22 22 22 22 22 22 21 21 21 21 20 19 19 19
110 110 110 111 110 112 114 111 107 104 101 96 91 89 88 87 86 83 80 77 73 69 66 66 67 67 65 66 68 66 64 63 59 56 55 53 52 51 50 50 49 47 45 43 41 40 38 36 34 32 30 30 29 28 26 24 23 23 23 23 22 21 21 20 20 21 21 22 22 22 22 23 23 22 22 23 23 23 23 22 22 21 20 19 19 19
112 111 111 111 111 114 116 112 109 106 103 99 95 92 91 88 85 83 80 78 75 71 69 69 68 68 66 67 71 69 66 66 63 60 58 56 55 53 51 51 50 49 46 44 42 41 39 36 34 33 32 32 31 30 29 27 26 24 24 24 23 23 22 21 20 20 21 21 21 20 21 23 24 24 24 24 24 24 24 24 23 23 22 20 20 19
113 113 113 112 113 117 118 114 112 111 107 104 100 96 92 89 86 84 80 78 76 72 71 70 69 70 69 70 73 72 69 68 67 64 62 60 59 56 54 53 51 49 47 45 43 42 40 37 35 35 34 33 33 32 32 30 28 27 26 26 24 23 22 22 21 21 22 22 21 20 21 23 24 25 25 25 25 25 25 25 25 25 24 23 22 20
116 115 115 114 114 118 119 116 115 115 113 109 103 97 94 91 88 86 84 82 79 76 74 73 72 72 72 73 75 74 72 71 70 69 66 64 63 60 58 56 53 51 49 47 45 43 40 38 36 36 36 35 35 34 34 32 30 29 28 27 25 24 23 23 22 22 22 22 22 21 22 22 24 26 26 26 25 25 25 26 26 26 26 25 24 23
117 116 116 116 115 118 120 119 118 118 116 110 104 99 97 93 90 88 87 85 83 81 78 77 76 74 74 77 77 76 76 75 73 71 69 67 65 63 60 58 55 53 50 48 45 43 41 39 38 37 38 38 37 36 36 34 33 31 30 29 27 25 25 24 24 23 23 22 22 23 23 23 25 27 27 26 25 25 26 27 27 27 27 27 27 26
118 117 117 118 118 119 120 120 118 118 115 110 105 102 98 95 91 90 89 86 84 82 79 79 79 76 77 81 80 77 77 76 73 71 70 68 66 64 62 59 57 55 52 49 47 45 43 41 40 39 40 40 39 38 37 36 34 33 32 30 28 26 26 26 25 25 24 23 24 24 24 25 26 27 27 27 26 26 27 28 28 28 29 29 30 29
119 118 118 119 119 120 119 119 118 117 115 111 108 105 101 97 94 92 90 88 86 83 81 81 79 76 79 83 81 76 77 77 76 73 72 70 68 65 63 60 58 56 53 51 49 47 45 43 42 42 42 43 42 41 40 39 37 35 33 31 29 29 28 28 28 27 25 25 25 25 25 26 26 27 28 28 27 27 29 30 29 29 30 31 31 31
117 119 119 118 119 119 119 118 118 118 116 113 111 109 105 101 97 94 92 89 87 85 84 82 80 79 81 83 81 80 80 79 77 75 72 71 68 65 64 62 60 58 55 53 50 48 46 45 44 44 44 44 44 43 42 41 39 37 35 33 31 31 30 30 29 27 27 27 27 25 25 26 27 28 28 29 29 29 30 31 31 31 32 32 32 32
113 117 118 118 118 119 119 118 118 119 118 116 113 112 108 104 100 97 94 92 88 86 85 82 81 83 84 82 82 83 82 80 78 75 74 73 70 67 65 63 62 59 57 54 51 49 47 46 45 46 46 46 47 46 44 42 41 39 36 35 34 32 31 31 29 29 28 28 27 26 26 26 27 28 29 30 30 30 31 32 32 33 33 33 34 33
109 113 116 118 119 120 120 119 118 119 120 118 115 113 110 107 103 99 97 94 90 88 86 84 84 87 86 82 82 84 83 81 78 76 75 75 73 70 66 64 63 60 58 55 52 50 48 47 46 47 48 49 49 48 45 44 42 40 37 36 36 34 33 32 31 31 30 29 28 27 27 27 27 28 30 31 31 31 32 33 34 34 35 35 36 35
106 110 114 118 119 121 121 120 118 119 120 119 116 113 112 109 105 102 99 96 92 90 88 87 87 88 86 83 84 84 84 82 79 76 75 75 74 72 69 66 64 62 59 56 54 52 51 50 49 50 51 52 51 49 47 45 43 41 39 38 37 36 35 34 33 32 31 30 29 29 28 28 28 29 30 31 32 32 33 34 35 37 37 37 37 37
103 108 111 115 118 121 121 119 119 118 119 118 116 114 113 111 108 105 101 98 95 93 90 88 87 88 87 87 87 86 84 84 82 79 77 75 74 73 71 69 66 64 61 59 57 56 54 53 52 54 55 54 53 51 48 46 44 42 40 39 38 37 36 34 33 32 32 31 31 30 30 30 30 30 31 32 32 33 34 35 37 38 39 38 38 38
100 105 109 112 116 120 120 120 120 118 117 117 116 115 114 113 111 107 103 100 98 95 92 89 89 90 90 90 89 87 86 85 84 82 79 77 74 73 71 70 68 66 64 63 61 59 56 55 57 58 57 55 53 51 48 46 44 42 41 40 39 38 37 35 34 34 33 33 32 32 32 32 32 32 32 33 34 34 35 37 38 39 40 40 40 39
97 102 106 109 113 117 119 120 120 118 116 116 117 117 115 114 113 110 106 103 101 97 94 91 90 91 92 90 89 89 88 87 85 83 81 78 75 73 71 70 69 68 67 66 64 61 60 60 61 60 57 54 52 50 49 47 45 44 43 41 39 39 38 37 36 35 35 34 34 34 34 34 34 34 34 34 35 36 37 38 39 40 41 41 41 40
94 99 104 107 110 113 116 119 119 118 116 116 118 119 118 115 113 111 109 106 102 99 96 93 92 92 93 92 91 91 90 88 85 84 81 78 75 73 72 71 70 69 68 67 65 64 64 63 62 59 55 54 53 52 51 49 46 45 44 42 41 40 39 38 37 37 36 36 35 36 35 35 35 35 35 36 36 38 39 40 40 41 41 41 41 41
90 96 100 104 107 109 113 116 118 118 117 116 118 120 119 116 113 112 111 108 104 101 98 95 93 93 94 93 93 92 91 89 86 83 80 77 76 75 74 73 71 70 68 67 67 66 65 63 61 58 56 56 55 54 52 50 47 46 45 44 43 42 40 39 39 39 38 37 38 37 37 37 37 37 37 37 38 39 40 41 42 41 41 41 41 41
85 93 97 100 103 106 109 111 115 117 117 117 119 120 120 117 114 112 112 110 106 102 99 96 95 95 95 95 94 93 91 88 85 81 79 78 77 76 75 74 72 71 70 69 68 66 64 62 61 59 58 57 56 54 53 51 49 48 47 46 45 43 41 41 41 41 40 40 40 39 38 37 37 37 38 38 39 40 41 42 43 42 42 42 42 42
80 87 93 96 99 103 106 108 111 115 117 118 119 120 120 118 115 114 113 110 107 103 101 98 97 96 96 96 95 93 90 86 83 81 81 81 79 77 76 74 73 73 72 71 68 65 64 62 61 60 59 58 57 56 55 53 51 50 49 47 45 44 44 44 43 43 43 42 40 39 39 39 38 39 39 40 41 41 42 42 43 42 42 43 43 43
76 83 89 93 97 100 103 106 108 113 116 118 120 120 120 118 117 115 112 109 107 105 103 100 98 98 97 97 96 94 90 86 83 82 82 82 80 79 78 76 76 75 73 70 68 66 64 63 62 61 61 59 58 57 56 54 52 51 49 48 47 47 47 46 46 45 44 42 41 41 40 40 40 40 40 41 41 41 41 42 43 44 44 44 44 44
73 80 86 92 95 98 101 103 106 110 114 117 119 120 119 118 117 114 110 108 108 108 105 103 101 100 99 98 96 94 90 87 85 83 83 82 82 81 79 78 78 75 73 71 69 66 65 63 62 62 61 60 59 57 55 53 53 52 50 49 49 49 48 47 47 46 44 43 43 43 42 42 41 40 40 41 41 41 41 42 43 44 45 45 45 45
71 77 84 91 95 97 100 102 104 107 111 115 118 118 118 117 115 112 110 109 109 109 107 106 104 102 100 99 97 94 90 87 86 85 84 83 83 82 81 80 78 75 73 71 69 67 66 64 63 62 62 61 59 57 56 55 54 53 51 51 51 50 48 47 47 46 45 45 45 44 43 42 41 40 40 41 41 41 41 41 43 44 45 45 45 45
68 74 81 88 93 96 99 101 102 104 108 112 115 117 116 115 113 111 111 111 110 110 109 108 106 104 102 101 99 96 92 89 87 86 85 85 85 84 83 81 78 76 73 72 70 68 67 66 64 63 62 61 60 59 58 57 56 55 54 54 53 51 49 48 48 48 47 47 46 45 43 42 41 40 40 41 41 41 41 41 42 43 44 44 44 45
66 72 79 86 91 94 97 98 100 103 106 110 113 114 114 113 112 111 112 111 110 110 110 109 108 106 104 102 100 97 94 90 88 87 87 87 87 86 84 81 79 76 74 73 72 70 68 67 66 64 63 63 62 61 60 59 58 58 57 56 54 52 51 50 50 50 49 48 46 45 43 42 41 41 41 41 42 42 42 42 42 43 43 43 44 45
64 70 77 83 87 91 95 97 99 101 103 107 110 112 113 113 111 110 111 111 110 110 110 110 109 108 106 104 102 99 95 92 89 88 89 89 88 86 84 82 80 77 76 74 73 71 70 68 67 65 65 64 63 62 62 61 61 60 59 57 55 54 53 52 52 51 50 48 46 45 43 42 42 43 43 42 42 42 42 42 42 43 43 43 44 44
61 67 73 78 82 87 91 95 98 100 101 103 107 110 112 112 111 110 111 112 111 110 110 110 110 109 107 105 103 100 97 94 91 90 90 91 89 87 85 83 81 78 77 75 74 73 71 70 68 67 66 66 65 65 64 63 63 62 61 59 57 56 55 54 53 52 50 48 46 45 44 45 45 44 43 43 43 42 42 42 42 42 43 44 45 45
57 63 69 74 79 83 87 91 96 99 100 101 104 107 110 111 111 110 110 111 112 111 111 110 110 109 108 106 103 101 99 97 94 92 92 91 90 88 86 85 83 80 78 77 75 74 73 71 70 69 68 67 66 66 65 65 65 64 62 60 58 58 57 56 54 52 50 48 47 46 46 47 46 45 44 43 43 43 42 42 42 42 43 44 45 46
54 59 64 70 76 80 84 88 93 97 98 99 101 105 108 110 110 110 109 110 111 112 111 110 109 109 108 106 104 102 100 99 96 94 93 92 91 90 88 86 84 83 80 79 77 76 74 73 71 70 69 68 66 65 65 65 65 64 62 60 59 59 58 56 54 53 51 49 48 48 48 48 47 46 45 45 44 43 43 43 43 43 43 43 44 46
52 56 60 66 72 77 82 86 90 94 96 98 99 102 105 108 109 109 108 108 110 111 111 111 110 109 108 106 104 102 101 100 96 92 94 95 92 91 91 89 86 84 82 80 79 77 75 74 73 72 70 68 67 66 66 66 66 64 62 60 60 59 58 56 55 53 51 50 50 49 49 49 49 48 47 46 45 44 43 43 42 42 43 43 43 45
50 54 58 63 69 75 80 84 89 93 95 96 98 100 102 105 107 108 107 107 109 111 112 112 111 110 108 107 104 102 101 102 96 88 88 95 96 93 92 91 87 86 84 82 80 79 77 76 74 73 72 70 68 67 67 67 66 65 63 61 60 59 58 57 55 54 52 52 51 51 51 51 50 49 49 47 46 44 43 43 43 43 42 42 42 44
Wind_Direction
226 225 227 230 231 229 228 228 229 229 229 232 234 230 227 225 225 227 226 229 234 237 238 237 235 235 235 234 235 235 232 230 231 232 234 233 232 230 211 193 192 186 170 209 230 195 159 164 172 172 181 188 177 167 162 152 146 143 142 145 148 149 150 149 148 146 144 142 140 137 133 126 118 112 108 107 106 104 102 100 99 96 94 92 89 88
225 226 230 231 230 229 228 229 229 230 229 231 233 230 226 225 225 225 225 227 231 233 235 235 234 232 230 229 228 225 220 219 220 220 220 219 222 219 201 188 188 181 167 189 216 198 163 163 174 174 177 186 182 170 165 160 153 150 148 149 151 153 154 154 153 151 149 147 145 142 138 131 124 117 112 109 108 107 105 103 100 97 95 92 89 87
226 228 231 229 228 228 228 228 228 229 229 229 232 231 228 226 224 225 224 226 229 230 232 234 234 232 227 223 218 213 212 212 211 209 207 206 212 208 193 185 186 179 167 174 201 197 167 161 171 173 175 183 185 176 169 167 163 159 154 152 152 154 156 156 156 154 152 150 148 145 141 136 129 122 116 114 113 111 109 106 103 100 96 93 89 86
227 230 230 226 226 228 227 227 227 228 228 227 230 231 230 227 224 224 223 224 227 225 226 231 234 232 226 217 209 205 205 204 202 199 197 197 202 198 189 186 184 176 167 165 185 195 172 161 168 171 175 184 188 185 177 172 169 165 161 155 152 153 154 157 157 157 155 153 150 146 142 138 132 126 120 118 117 116 114 111 108 104 99 94 90 84
228 230 229 224 225 226 225 226 226 227 227 227 228 229 229 227 224 223 222 224 225 221 220 227 232 231 224 215 207 202 199 197 196 194 192 193 195 193 188 184 180 174 167 162 173 188 175 161 166 174 179 185 191 192 187 178 172 168 165 160 156 156 156 158 159 158 157 154 151 147 143 140 138 133 128 125 123 121 118 115 111 107 102 97 92 87
228 230 228 224 225 225 224 225 226 226 227 226 227 228 228 228 225 221 221 224 224 220 219 224 227 226 220 213 207 200 194 194 194 191 190 193 193 190 185 181 179 175 168 162 166 181 178 164 165 175 181 186 190 194 192 184 178 174 170 167 165 163 161 160 160 161 161 160 158 156 154 151 148 143 137 134 131 127 123 118 113 109 106 102 98 95
228 229 228 225 225 225 224 225 226 226 227 227 227 227 227 227 225 221 220 224 223 218 215 219 223 222 217 211 204 197 192 195 193 187 188 192 190 187 183 180 180 176 169 163 163 175 181 169 161 167 178 185 188 191 194 190 186 182 176 174 173 171 168 166 167 169 169 170 171 169 163 156 151 146 141 139 137 133 128 122 117 112 108 106 104 102
228 229 228 227 226 224 224 224 225 226 226 227 227 227 226 226 225 221 220 223 224 217 212 216 220 218 214 208 202 194 192 195 191 185 187 189 187 186 184 181 180 179 173 164 163 171 178 173 163 163 171 179 185 190 194 194 193 189 183 180 179 177 176 176 177 177 178 179 179 175 166 157 154 151 145 141 136 131 126 121 117 115 112 109 107 105
227 227 227 227 226 224 223 224 224 223 224 225 226 227 226 226 224 221 219 221 224 217 211 215 218 216 213 206 201 196 192 193 188 185 187 186 186 187 185 182 181 182 176 167 164 169 175 175 167 162 166 175 185 191 193 196 197 194 190 187 185 184 184 185 186 186 188 187 185 182 177 174 170 163 158 151 142 134 125 117 111 109 109 109 107 105
226 226 226 227 226 224 223 223 223 222 222 223 224 225 226 225 223 220 218 220 224 219 211 213 216 216 211 203 202 199 194 191 187 186 186 185 187 188 185 183 182 183 181 173 166 167 174 177 171 166 167 173 182 190 195 198 199 197 197 194 190 189 190 192 194 195 196 195 193 194 192 191 185 180 180 174 162 150 136 123 111 103 99 97 99 101
226 227 226 227 227 225 223 222 222 221 221 222 223 225 226 225 222 219 217 218 222 220 213 212 215 215 209 201 202 201 196 192 188 186 185 185 188 188 186 186 184 184 185 178 169 168 174 178 176 171 168 169 175 186 195 200 202 201 201 200 196 194 195 197 199 201 201 201 202 206 206 202 198 195 197 199 197 188 161 134 113 96 82 67 63 75
226 226 226 226 227 226 224 223 222 221 221 221 222 225 226 225 223 219 215 216 218 219 216 212 213 214 206 199 199 200 199 195 191 187 183 185 189 188 189 188 185 184 187 184 175 171 175 177 177 175 171 171 174 181 189 196 201 204 205 203 200 199 201 202 204 205 204 205 208 212 213 211 210 208 208 214 221 224 225 221 206 72 34 20 10 6
225 225 225 225 226 226 225 223 222 221 221 220 222 225 225 225 224 220 215 212 211 216 218 212 211 212 206 201 200 201 202 197 193 189 184 186 189 189 191 190 187 186 189 191 184 174 176 177 177 177 175 176 177 178 183 189 195 202 208 208 205 204 204 205 208 209 208 211 214 218 220 218 220 219 220 225 231 236 241 243 245 252 273 292 305 313
225 224 224 224 224 225 225 223 222 222 221 220 221 224 225 224 224 221 215 208 205 212 217 213 208 209 209 205 202 203 202 196 193 191 188 188 190 191 192 191 189 190 190 194 192 182 179 179 178 179 179 178 178 178 180 185 190 197 206 210 211 210 209 208 210 211 211 215 219 223 225 224 225 227 227 230 236 239 244 248 250 251 257 268 278 287
225 224 223 223 223 224 225 224 222 221 220 219 220 222 223 222 223 222 215 207 203 207 214 213 206 207 211 205 204 208 204 197 194 193 191 190 192 194 193 192 192 193 193 194 196 192 187 183 180 179 182 182 181 180 181 184 187 193 200 206 210 214 215 213 212 211 211 214 220 224 227 228 229 232 232 233 236 242 248 252 256 258 260 262 268 275
224 224 223 222 222 223 224 224 222 221 219 218 220 221 221 221 221 221 216 207 203 205 210 212 205 207 211 205 207 213 207 200 197 194 193 193 194 195 194 194 195 195 196 195 195 198 196 192 186 183 183 184 185 185 184 185 187 191 196 200 205 212 218 219 217 213 212 213 218 223 227 229 231 233 235 236 239 244 250 255 259 262 264 265 268 274
223 224 223 221 221 222 223 223 223 221 219 218 219 220 220 219 219 220 217 208 203 203 206 210 206 207 211 206 207 214 210 205 201 195 195 195 195 196 196 197 199 197 197 197 196 199 201 200 197 191 185 185 187 189 187 187 189 191 195 199 203 208 215 219 218 216 214 214 216 220 224 227 230 233 235 237 240 243 247 252 256 261 265 268 272 277
222 223 222 221 220 221 222 223 223 221 219 217 218 218 219 218 218 219 218 210 204 202 203 210 209 206 210 209 206 212 213 209 206 199 196 196 195 196 198 200 201 201 200 199 198 200 203 204 205 201 194 189 189 190 192 192 190 191 195 198 203 207 212 216 216 215 218 219 220 220 222 224 227 233 237 237 238 240 244 247 252 258 263 267 272 278
222 222 221 220 220 220 221 222 222 221 219 217 216 217 217 218 217 218 219 213 206 202 201 210 213 208 211 214 208 210 213 210 210 206 198 196 195 196 200 202 202 203 202 201 200 202 204 205 207 208 206 201 195 194 196 197 196 195 196 199 203 207 211 214 214 213 217 222 225 226 227 225 225 228 234 237 239 240 243 246 251 255 259 264 271 276
221 221 220 219 219 219 220 221 221 220 219 217 216 215 215 217 216 216 217 213 206 202 199 206 213 209 212 217 211 209 214 212 211 212 205 199 197 197 200 202 203 204 203 203 202 203 206 206 207 211 214 214 212 206 201 200 202 201 199 201 204 206 210 214 215 214 214 217 221 226 231 232 228 226 229 235 239 241 243 246 250 253 256 262 267 272
219 220 219 219 218 218 219 220 220 219 219 218 215 214 214 215 216 215 215 213 207 202 198 202 210 209 211 218 215 210 214 214 212 214 213 206 202 201 202 203 205 204 204 204 204 204 207 208 209 211 214 218 222 220 213 207 205 205 205 205 204 205 210 215 218 219 219 219 219 222 227 232 233 231 230 235 240 244 245 247 249 252 256 260 264 269
217 218 218 218 218 217 218 219 219 219 219 218 215 213 213 214 215 214 214 213 209 203 198 199 207 210 210 216 217 212 213 215 212 213 215 212 208 205 204 205 207 207 206 206 205 205 207 209 211 212 213 217 221 224 226 222 214 209 209 210 208 206 210 215 220 223 225 225 225 226 229 233 236 235 235 237 241 243 245 246 248 251 254 257 261 265
217 217 218 218 217 217 218 218 218 219 219 218 215 213 214 213 213 213 212 212 210 204 199 199 205 210 209 213 217 214 213 215 215 213 214 216 213 209 207 207 209 209 209 208 208 208 209 212 214 215 214 216 219 224 230 231 225 218 215 214 213 212 212 216 222 227 230 231 230 230 233 236 239 239 239 240 242 244 245 245 246 248 251 253 256 260
216 216 217 217 216 217 218 217 217 218 218 218 215 213 213 213 213 213 211 211 210 205 200 199 203 208 209 212 216 214 212 214 215 214 214 216 217 215 212 211 211 212 212 212 211 212 212 214 217 218 218 217 219 222 227 229 229 226 220 217 217 217 216 217 221 228 233 237 236 235 235 238 241 241 241 242 244 245 247 248 248 248 249 250 252 256
217 215 215 215 215 216 217 216 216 217 217 217 215 213 212 211 211 211 210 210 210 207 201 198 202 207 208 212 215 213 212 213 213 214 214 215 217 217 216 215 215 215 215 215 215 215 215 216 217 219 221 221 221 222 225 228 229 229 227 224 222 221 220 219 222 227 233 239 241 241 239 240 243 245 243 243 244 246 248 250 251 251 251 250 250 252
217 215 214 214 215 216 217 216 215 216 216 216 214 212 211 211 210 210 209 208 208 206 202 198 201 206 208 212 216 213 212 213 213 213 213 214 216 217 217 217 217 217 217 217 217 217 218 218 218 219 222 224 224 224 225 227 228 229 231 230 227 225 223 223 224 228 233 240 243 245 244 244 245 247 248 246 246 247 248 250 252 253 254 253 252 251
216 215 214 213 214 215 216 215 215 216 216 215 214 212 211 210 209 209 209 208 207 206 203 199 200 205 208 213 216 215 213 213 213 214 213 213 216 218 218 218 219 219 219 219 219 220 220 220 220 219 221 224 225 226 227 228 228 230 232 233 232 229 227 227 228 230 233 238 243 246 248 247 248 250 252 252 250 249 250 251 252 254 255 256 255 254
216 215 214 213 213 214 216 215 215 216 216 215 214 213 212 210 209 209 209 208 207 206 203 200 200 203 208 213 217 217 216 214 213 215 216 214 215 217 219 220 220 220 220 220 220 220 221 221 220 219 221 223 225 226 228 229 230 231 233 234 233 232 231 231 231 233 235 238 241 244 247 248 250 252 255 256 254 253 253 253 253 253 255 256 257 257
215 215 214 213 213 214 215 215 215 216 215 214 213 213 212 210 208 209 209 208 207 205 204 202 200 203 209 213 216 218 219 216 213 214 217 217 215 216 218 220 221 221 221 221 221 221 221 221 220 219 221 224 225 226 228 229 230 232 233 234 233 232 231 232 233 236 238 239 241 243 245 248 250 252 255 257 256 254 254 255 255 255 255 256 257 259
214 215 215 214 213 213 214 214 214 215 215 214 212 212 212 210 208 208 208 208 207 205 204 202 199 203 210 212 214 218 220 219 214 212 215 218 218 216 217 219 220 221 221 221 221 221 221 221 220 219 221 224 226 226 227 229 230 231 232 233 233 232 233 234 237 240 241 243 244 246 248 249 251 253 254 255 255 254 254 255 256 256 256 257 258 260
214 215 215 214 214 213 214 214 213 214 214 213 212 211 211 210 208 207 207 207 206 205 205 202 199 204 211 211 212 217 220 220 217 212 212 216 218 218 218 218 219 220 220 221 221 220 221 221 220 220 221 224 226 227 227 229 230 231 232 232 233 233 235 237 240 242 244 246 248 250 252 253 253 254 254 254 254 253 252 254 255 256 256 257 258 259
213 214 214 214 214 214 213 213 213 213 214 213 212 211 211 210 208 207 207 207 206 205 205 202 200 205 211 211 212 216 220 222 220 215 213 214 216 217 217 218 219 219 219 219 220 220 220 220 220 220 222 224 226 227 227 229 231 232 232 232 232 233 235 238 240 243 245 248 251 253 254 254 255 255 255 255 254 253 252 252 253 255 255 256 257 258
213 213 214 214 214 214 214 213 212 213 213 213 212 211 210 209 208 207 206 206 206 205 205 203 202 205 210 212 212 214 218 221 221 218 215 215 215 215 216 218 219 219 218 218 218 218 219 219 220 221 223 225 226 227 227 228 231 232 231 231 232 234 236 238 241 244 248 250 253 254 256 257 257 258 257 257 256 254 252 251 251 252 253 255 256 258
212 212 213 213 214 214 214 213 212 212 212 213 212 211 210 209 208 207 206 205 205 205 205 203 203 205 210 212 213 213 216 219 220 219 218 216 215 215 215 217 218 219 218 217 217 217 217 218 219 222 224 226 227 229 230 230 232 233 233 233 234 236 237 239 242 245 248 251 252 254 256 257 258 258 257 257 256 254 252 250 250 250 251 253 255 256
211 212 212 212 213 214 214 212 212 212 212 212 212 211 211 209 209 207 205 205 205 205 205 203 203 206 210 213 214 213 215 217 218 219 219 218 216 216 216 216 218 219 219 218 217 216 216 217 220 222 224 226 228 230 231 232 232 233 234 234 235 237 238 240 242 245 247 250 252 254 255 256 257 257 257 256 255 253 251 249 249 249 249 251 252 254
211 211 211 211 212 214 213 212 212 211 211 211 211 212 211 210 208 207 205 205 205 205 204 204 204 206 210 213 214 214 214 216 217 218 219 219 218 217 217 217 217 218 219 219 218 217 216 217 220 223 225 227 229 230 231 230 230 232 233 234 234 236 238 240 242 245 247 249 251 253 254 256 258 258 258 256 254 252 251 249 249 248 248 249 250 252
210 211 211 211 212 213 213 212 211 211 210 210 210 211 211 210 209 207 206 205 204 204 204 204 205 207 210 212 215 215 215 216 217 217 218 219 219 218 218 218 218 218 219 220 219 218 218 219 221 223 224 226 227 229 230 230 230 231 233 233 234 236 238 240 243 245 247 249 251 253 255 257 259 260 259 257 255 252 251 250 249 249 248 248 249 250
209 210 211 211 211 212 212 212 211 210 209 209 210 211 211 210 209 208 206 205 204 204 204 204 205 208 210 212 215 216 215 215 217 218 218 219 220 219 219 219 219 219 219 220 220 220 220 220 221 222 222 224 226 228 229 229 230 231 232 233 234 236 239 241 244 246 248 249 251 253 256 258 260 261 260 259 256 254 253 252 250 249 249 248 248 248
208 210 211 211 211 212 212 211 210 210 209 208 209 211 211 210 208 208 207 205 204 204 204 204 206 209 211 213 216 217 216 215 216 218 218 219 220 220 220 220 220 220 220 220 220 221 221 221 221 221 222 224 226 227 229 229 229 230 231 232 233 236 238 241 243 245 246 248 251 254 257 259 260 261 261 260 258 256 255 253 253 251 250 249 249 248
208 209 210 211 211 212 212 211 210 209 208 208 209 210 211 210 208 208 207 205 204 204 204 205 207 210 212 214 216 217 216 215 215 217 219 219 220 220 221 221 221 221 221 221 221 221 221 221 221 221 222 224 225 227 228 228 229 230 231 232 233 235 237 239 241 243 246 249 252 254 256 258 259 260 260 260 260 259 257 256 255 253 252 250 249 248
206 207 209 210 211 212 211 210 209 209 208 207 208 209 210 209 208 207 207 205 204 204 205 205 207 211 213 214 216 216 215 214 215 216 219 220 221 221 221 221 222 222 222 222 222 222 221 221 221 222 223 224 225 226 228 229 230 231 231 232 234 236 237 239 242 245 247 250 252 254 255 257 258 260 262 262 262 260 259 257 255 254 253 251 250 249
205 205 207 209 210 211 211 210 209 208 208 207 208 209 209 209 208 207 206 205 204 205 205 206 208 211 213 215 216 216 215 214 214 216 218 220 221 221 221 221 222 223 223 222 222 222 222 222 222 222 223 224 225 226 228 229 231 232 233 233 235 237 239 241 243 246 248 250 252 253 255 258 260 262 262 262 262 260 258 257 256 255 254 253 251 250
204 204 204 207 210 211 211 210 209 208 207 207 207 208 209 209 208 207 206 205 204 205 205 206 208 211 213 215 216 216 214 213 214 215 218 220 222 222 222 222 222 223 223 223 223 223 223 223 223 223 224 224 225 225 226 228 230 231 233 234 236 237 239 242 244 247 248 250 252 254 257 259 261 262 262 261 261 260 259 258 257 257 256 255 254 252
204 204 204 205 208 210 210 209 208 208 207 207 207 207 208 208 207 206 205 205 204 205 206 207 209 211 213 215 216 215 214 213 214 215 217 220 222 223 223 223 223 223 223 223 224 223 224 224 224 224 225 225 226 226 226 227 229 230 232 234 236 238 240 242 244 246 248 250 252 255 257 260 261 262 261 260 259 259 258 257 256 256 257 257 255 254
204 204 205 205 206 208 209 209 208 208 207 207 207 207 207 207 207 206 205 205 204 204 206 207 209 211 213 215 216 215 213 213 214 215 217 220 222 223 224 224 223 223 223 224 224 224 225 225 225 226 226 227 227 228 228 228 229 230 232 234 236 238 239 242 244 246 248 251 253 255 258 260 260 259 258 257 256 257 257 256 255 255 255 256 256 254
204 204 205 206 206 207 207 207 208 208 207 207 206 206 206 206 206 205 205 205 204 204 206 207 209 211 213 215 215 215 213 213 214 215 217 220 222 223 224 224 224 224 224 224 225 225 226 226 226 227 228 228 229 230 230 230 231 232 233 235 236 238 240 242 244 247 248 251 253 256 257 258 258 257 256 256 256 257 257 257 256 255 254 254 254 253
204 204 204 206 207 207 206 205 206 207 208 207 206 205 205 205 205 205 204 204 204 204 205 207 209 211 213 214 215 215 213 213 214 215 218 220 221 222 223 224 225 225 225 225 225 226 227 227 227 227 228 229 230 231 232 232 233 234 235 236 237 238 240 242 244 246 248 251 253 255 256 256 256 256 256 255 256 257 257 257 256 255 253 252 252 252
203 204 204 204 206 208 206 204 204 206 207 206 206 205 204 204 205 204 204 204 204 204 205 207 209 211 212 214 215 214 213 213 214 216 218 220 221 222 223 224 225 225 226 226 226 226 227 228 228 228 228 229 230 231 233 234 235 236 237 238 239 241 242 244 246 247 249 251 252 254 255 256 257 256 255 254 254 256 257 256 256 255 254 253 252 252
201 202 203 203 205 206 206 204 203 205 205 205 205 205 204 204 204 204 203 203 204 204 205 206 209 211 212 213 214 214 214 213 214 216 218 220 221 222 223 224 225 226 226 226 227 227 228 228 229 229 230 230 231 232 234 235 237 238 239 240 241 243 244 246 247 249 250 251 253 254 255 256 256 255 254 253 253 254 255 256 256 256 256 255 254 253
201 201 201 202 203 205 206 205 203 204 205 205 205 205 204 203 204 203 203 203 204 204 204 206 208 210 212 213 214 214 213 214 214 216 219 221 222 223 224 224 225 226 227 227 228 228 228 229 230 231 231 232 232 233 235 236 238 239 240 241 242 243 245 247 248 250 251 252 253 254 255 255 254 253 253 253 253 254 255 255 256 257 257 256 255 255
201 200 200 201 202 203 204 204 203 203 204 204 204 204 203 203 203 203 202 203 203 204 204 206 208 210 211 213 213 213 213 213 213 215 219 221 222 223 224 225 225 226 227 228 229 229 229 230 230 231 233 233 233 234 235 237 239 240 241 241 243 244 245 247 248 250 251 252 253 253 254 254 253 252 252 252 253 254 255 256 256 256 256 256 256 256
Height
10908 10913 10918 10919 10918 10919 10922 10925 10927 10931 10935 10936 10938 10943 10948 10950 10952 10954 10956 10957 10959 10961 10963 10965 10967 10968 10970 10972 10974 10976 10980 10981 10983 10985 10988 10991 10993 10995 10996 10996 10997 10998 10999 11000 11001 11000 10999 11000 11000 11001 11003 11004 11005 11006 11007 11007 11008 11009 11010 11010 11010 11011 11011 11012 11012 11013 11013 11014 11015 11016 11017 11017 11018 11018 11019 11019 11020 11020 11020 11020 11020 11021 11021 11021 11021 11021
10902 10909 10910 10908 10909 10913 10918 10921 10925 10928 10931 10933 10935 10940 10944 10946 10949 10951 10953 10955 10956 10958 10960 10962 10963 10964 10966 10968 10970 10973 10975 10977 10979 10983 10986 10989 10991 10993 10994 10994 10995 10996 10997 10999 11000 11000 10999 10999 11000 11001 11002 11004 11005 11006 11007 11008 11009 11010 11010 11011 11012 11012 11012 11013 11013 11014 11015 11016 11017 11017 11018 11019 11020 11020 11020 11021 11021 11021 11022 11022 11022 11023 11023 11023 11023 11023
10897 10901 10897 10899 10905 10909 10912 10916 10920 10923 10926 10930 10932 10935 10939 10942 10946 10948 10950 10952 10954 10956 10958 10959 10960 10961 10962 10964 10966 10969 10971 10974 10977 10980 10983 10986 10989 10991 10992 10992 10993 10994 10995 10997 10999 11000 10999 10998 10999 11000 11002 11004 11005 11006 11007 11008 11009 11010 11011 11012 11013 11014 11014 11015 11016 11016 11017 11018 11019 11019 11020 11021 11021 11022 11022 11022 11023 11023 11023 11024 11024 11024 11024 11025 11025 11025
10889 10888 10885 10894 10900 10902 10906 10910 10914 10917 10921 10925 10928 10930 10934 10937 10941 10944 10947 10949 10951 10953 10955 10956 10957 10958 10959 10961 10962 10964 10967 10971 10975 10977 10980 10983 10986 10988 10989 10989 10990 10992 10993 10995 10997 10999 10998 10998 10998 11000 11001 11003 11004 11005 11006 11007 11009 11010 11012 11013 11014 11015 11016 11017 11017 11018 11019 11019 11020 11021 11021 11022 11023 11023 11024 11024 11024 11024 11024 11025 11025 11025 11026 11026 11026 11026
10878 10875 10878 10891 10893 10893 10898 10903 10908 10912 10916 10920 10922 10925 10928 10932 10936 10940 10944 10946 10947 10950 10953 10954 10955 10955 10957 10958 10959 10961 10965 10968 10971 10973 10975 10978 10981 10984 10985 10987 10988 10990 10992 10993 10995 10997 10998 10997 10998 10999 11000 11002 11004 11005 11006 11007 11008 11010 11012 11013 11015 11016 11017 11018 11019 11019 11020 11021 11021 11022 11023 11023 11024 11024 11025 11025 11025 11026 11026 11026 11026 11026 11027 11027 11027 11027
10867 10866 10874 10884 10882 10885 10893 10898 10902 10906 10909 10914 10917 10920 10923 10926 10931 10937 10941 10942 10944 10948 10951 10952 10953 10953 10954 10956 10958 10960 10963 10965 10967 10969 10973 10976 10979 10981 10984 10985 10987 10988 10990 10992 10993 10996 10997 10997 10997 10998 11000 11002 11003 11005 11007 11008 11009 11010 11011 11013 11015 11016 11017 11018 11019 11020 11021 11021 11022 11022 11023 11023 11024 11024 11025 11026 11026 11027 11027 11027 11027 11027 11028 11028 11028 11028
10858 10859 10868 10873 10873 10880 10888 10893 10897 10901 10904 10909 10911 10915 10918 10922 10927 10933 10936 10937 10941 10945 10949 10950 10951 10951 10952 10954 10956 10958 10960 10962 10964 10967 10971 10975 10978 10981 10983 10983 10985 10986 10988 10990 10992 10994 10996 10996 10996 10997 10999 11001 11003 11005 11006 11008 11008 11009 11011 11012 11014 11016 11017 11018 11019 11020 11021 11022 11022 11023 11024 11024 11025 11025 11026 11026 11027 11027 11028 11028 11028 11028 11028 11029 11029 11029
10850 10851 10859 10863 10867 10874 10881 10886 10890 10894 10898 10902 10906 10910 10913 10916 10922 10928 10932 10934 10938 10942 10946 10947 10948 10949 10951 10952 10954 10956 10957 10960 10962 10965 10969 10973 10977 10980 10981 10981 10983 10985 10986 10988 10990 10992 10994 10996 10996 10996 10998 11000 11002 11004 11006 11007 11008 11009 11011 11012 11013 11015 11017 11018 11019 11020 11021 11022 11023 11024 11025 11025 11026 11026 11027 11027 11027 11028 11028 11028 11029 11029 11029 11029 11029 11029
10838 10842 10849 10852 10857 10866 10873 10877 10879 10884 10891 10894 10898 10903 10906 10910 10916 10922 10928 10930 10934 10939 10943 10945 10946 10948 10949 10951 10953 10953 10955 10958 10961 10964 10967 10971 10975 10977 10979 10980 10981 10983 10985 10986 10988 10990 10993 10994 10995 10996 10997 10999 11001 11003 11005 11006 11008 11009 11010 11012 11013 11014 11016 11017 11018 11020 11021 11022 11023 11024 11025 11025 11026 11027 11027 11027 11028 11028 11028 11029 11029 11029 11029 11029 11029 11030
10828 10832 10839 10842 10849 10858 10863 10866 10870 10878 10884 10885 10892 10897 10899 10905 10911 10918 10925 10928 10930 10936 10942 10943 10944 10945 10947 10949 10951 10951 10953 10955 10958 10961 10964 10969 10973 10975 10977 10978 10980 10981 10983 10984 10986 10989 10991 10993 10994 10995 10996 10998 11000 11002 11004 11006 11007 11008 11010 11011 11012 11014 11015 11016 11018 11019 11020 11021 11023 11024 11025 11025 11026 11027 11027 11027 11028 11028 11028 11029 11029 11029 11029 11030 11030 11030
10820 10822 10830 10836 10841 10848 10853 10857 10864 10872 10875 10878 10887 10890 10892 10899 10907 10914 10921 10924 10928 10934 10939 10940 10941 10943 10945 10947 10949 10950 10951 10952 10955 10957 10962 10967 10970 10973 10975 10976 10978 10980 10981 10983 10984 10987 10989 10991 10992 10994 10995 10996 10998 11001 11003 11005 11006 11007 11009 11010 11012 11013 11014 11016 11017 11018 11019 11021 11022 11023 11024 11025 11026 11026 11027 11027 11028 11028 11028 11029 11029 11029 11030 11030 11030 11030
10809 10814 10824 10829 10831 10837 10844 10850 10857 10863 10866 10874 10882 10883 10886 10894 10901 10909 10916 10921 10928 10932 10934 10937 10938 10940 10944 10945 10946 10948 10948 10950 10953 10955 10959 10964 10967 10971 10974 10975 10977 10979 10981 10982 10983 10985 10987 10989 10991 10993 10994 10995 10997 10999 11000 11003 11005 11006 11008 11009 11011 11012 11013 11015 11016 11017 11019 11020 11021 11022 11023 11024 11025 11026 11027 11027 11028 11028 11028 11029 11029 11029 11030 11030 11030 11030
10798 10805 10813 10816 10820 10827 10835 10841 10848 10854 10860 10869 10875 10875 10881 10890 10896 10905 10913 10920 10927 10928 10928 10933 10936 10939 10941 10942 10943 10945 10946 10949 10953 10955 10959 10962 10965 10970 10972 10975 10977 10978 10980 10981 10982 10984 10986 10988 10990 10991 10993 10995 10996 10997 10999 11001 11003 11005 11007 11009 11010 11011 11012 11014 11015 11017 11018 11020 11020 11021 11022 11024 11024 11025 11026 11027 11027 11028 11028 11028 11029 11029 11029 11030 11030 11030
10787 10792 10797 10805 10811 10817 10824 10832 10841 10848 10855 10863 10867 10869 10876 10885 10891 10900 10909 10917 10921 10922 10923 10928 10933 10936 10937 10939 10941 10942 10944 10948 10951 10954 10957 10960 10963 10967 10970 10973 10976 10977 10979 10980 10981 10982 10984 10986 10988 10990 10992 10994 10995 10997 10998 11000 11002 11004 11006 11008 11009 11011 11012 11013 11014 11016 11018 11019 11020 11021 11021 11023 11023 11024 11025 11026 11026 11027 11027 11028 11028 11029 11029 11029 11029 11030
10773 10777 10785 10796 10803 10809 10816 10824 10832 10838 10845 10854 10858 10861 10868 10877 10884 10892 10901 10909 10913 10914 10916 10921 10929 10932 10932 10936 10938 10937 10941 10946 10949 10952 10955 10958 10961 10964 10968 10971 10974 10975 10977 10978 10980 10981 10982 10984 10986 10988 10990 10992 10994 10996 10997 10999 11000 11002 11004 11006 11008 11010 11011 11012 11013 11015 11016 11017 11018 11019 11020 11021 11022 11023 11024 11024 11025 11026 11026 11027 11028 11028 11028 11029 11029 11029
10758 10764 10774 10786 10794 10801 10806 10812 10818 10825 10836 10844 10847 10851 10860 10870 10877 10882 10891 10901 10905 10908 10912 10917 10925 10926 10927 10932 10933 10933 10939 10943 10946 10950 10952 10956 10959 10962 10966 10968 10970 10972 10974 10976 10978 10979 10981 10982 10984 10985 10987 10989 10992 10994 10995 10997 10999 11001 11002 11004 11006 11008 11010 11011 11013 11014 11015 11016 11017 11018 11019 11020 11021 11022 11022 11023 11024 11025 11025 11026 11027 11027 11028 11028 11028 11028
10746 10750 10761 10777 10786 10790 10794 10800 10808 10817 10828 10835 10838 10845 10854 10862 10868 10873 10883 10893 10898 10903 10910 10913 10918 10920 10922 10927 10929 10929 10934 10938 10941 10946 10949 10952 10956 10959 10963 10965 10966 10969 10971 10974 10976 10977 10979 10981 10982 10984 10985 10987 10989 10991 10994 10995 10997 10999 11001 11003 11005 11006 11008 11010 11012 11013 11014 11015 11016 11017 11018 11019 11020 11020 11021 11022 11023 11023 11024 11024 11025 11026 11026 11027 11027 11028
10732 10736 10752 10770 10776 10779 10785 10792 10799 10807 10815 10822 10828 10837 10844 10851 10861 10867 10875 10886 10894 10900 10906 10908 10909 10914 10916 10919 10923 10924 10928 10933 10936 10940 10944 10948 10952 10956 10959 10961 10963 10965 10968 10971 10974 10976 10978 10979 10981 10982 10984 10985 10987 10989 10992 10994 10996 10998 10999 11001 11003 11004 11006 11008 11010 11012 11013 11014 11014 11015 11016 11017 11018 11019 11020 11021 11022 11022 11022 11023 11023 11024 11025 11026 11026 11027
10718 10725 10743 10757 10761 10769 10775 10778 10784 10793 10801 10810 10818 10826 10835 10845 10855 10862 10870 10882 10890 10895 10902 10904 10904 10910 10911 10912 10918 10921 10924 10928 10931 10935 10940 10944 10948 10952 10954 10956 10959 10961 10964 10968 10971 10973 10975 10977 10979 10981 10982 10984 10985 10987 10989 10991 10993 10995 10997 10999 11001 11002 11004 11006 11008 11010 11011 11012 11013 11014 11015 11016 11017 11018 11019 11020 11020 11021 11021 11022 11022 11023 11024 11024 11025 11026
10705 10712 10728 10738 10745 10756 10759 10760 10772 10784 10792 10800 10808 10818 10829 10837 10845 10854 10863 10873 10881 10888 10896 10898 10899 10905 10906 10905 10913 10918 10919 10924 10928 10931 10936 10940 10944 10947 10949 10952 10954 10958 10961 10964 10967 10969 10972 10975 10977 10979 10981 10982 10984 10985 10987 10989 10991 10993 10995 10997 10998 11001 11003 11004 11006 11007 11008 11010 11011 11012 11013 11014 11015 11017 11018 11018 11019 11019 11020 11021 11021 11022 11022 11023 11024 11024
10689 10698 10712 10720 10730 10741 10745 10750 10764 10773 10778 10788 10800 10813 10822 10829 10837 10847 10854 10863 10873 10881 10888 10892 10893 10896 10897 10898 10907 10913 10915 10919 10924 10927 10931 10936 10940 10943 10945 10948 10950 10953 10957 10960 10963 10966 10968 10972 10974 10977 10979 10981 10983 10984 10985 10987 10988 10990 10993 10994 10996 10998 11000 11002 11003 11005 11006 11007 11009 11010 11011 11012 11013 11015 11016 11017 11017 11018 11019 11020 11020 11020 11021 11021 11022 11023
10675 10684 10695 10704 10717 10729 10733 10738 10749 10758 10766 10778 10794 10806 10813 10820 10829 10838 10848 10858 10866 10874 10881 10885 10884 10886 10890 10893 10899 10906 10909 10913 10917 10921 10925 10930 10935 10939 10942 10945 10947 10950 10953 10956 10960 10963 10965 10968 10971 10974 10977 10979 10980 10982 10983 10985 10986 10988 10990 10992 10994 10996 10998 10999 11001 11002 11004 11006 11007 11009 11009 11010 11011 11013 11014 11015 11016 11017 11017 11018 11018 11019 11019 11020 11021 11021
10662 10672 10682 10693 10709 10716 10716 10726 10739 10749 10760 10773 10788 10798 10803 10811 10819 10829 10840 10848 10856 10867 10875 10878 10877 10880 10885 10887 10890 10897 10903 10907 10912 10918 10922 10925 10929 10933 10937 10940 10943 10946 10949 10953 10956 10959 10963 10965 10968 10971 10974 10976 10978 10980 10981 10983 10984 10986 10988 10989 10992 10993 10995 10997 10999 11000 11002 11004 11005 11007 11008 11009 11010 11011 11012 11013 11014 11014 11015 11016 11017 11017 11017 11018 11019 11019
10648 10660 10669 10682 10697 10699 10703 10719 10733 10740 10751 10763 10775 10785 10793 10804 10814 10824 10835 10842 10850 10860 10867 10871 10872 10875 10879 10879 10880 10888 10895 10901 10907 10912 10917 10920 10924 10928 10933 10937 10940 10943 10947 10950 10953 10956 10960 10963 10966 10969 10971 10973 10975 10977 10979 10981 10982 10984 10985 10987 10989 10991 10993 10995 10996 10998 11000 11001 11003 11005 11006 11007 11007 11008 11009 11010 11011 11012 11013 11014 11015 11015 11016 11016 11017 11017
10634 10645 10654 10667 10679 10681 10689 10707 10718 10726 10738 10748 10760 10774 10785 10797 10807 10817 10827 10835 10844 10853 10859 10865 10866 10867 10872 10869 10869 10880 10888 10893 10900 10904 10909 10914 10917 10922 10928 10932 10936 10940 10943 10947 10950 10953 10957 10960 10963 10965 10967 10969 10971 10973 10975 10978 10980 10981 10983 10984 10986 10988 10991 10992 10994 10995 10997 10998 11000 11002 11003 11004 11005 11005 11006 11007 11009 11010 11011 11012 11013 11013 11014 11014 11015 11015
10617 10629 10640 10653 10664 10668 10678 10693 10703 10710 10720 10732 10749 10767 10779 10788 10798 10807 10816 10823 10832 10841 10849 10858 10858 10860 10864 10860 10858 10871 10880 10883 10889 10895 10901 10906 10910 10915 10921 10925 10930 10935 10939 10944 10947 10951 10954 10957 10960 10962 10964 10966 10968 10970 10972 10974 10977 10979 10980 10982 10984 10986 10988 10990 10991 10993 10994 10996 10997 10999 11000 11001 11002 11002 11003 11004 11006 11007 11008 11009 11010 11011 11012 11012 11013 11013
10602 10616 10628 10639 10650 10656 10664 10678 10689 10696 10707 10725 10745 10759 10768 10779 10790 10799 10806 10814 10822 10830 10839 10847 10848 10851 10856 10851 10848 10859 10870 10874 10880 10887 10893 10899 10904 10910 10915 10920 10925 10931 10936 10941 10945 10948 10951 10954 10957 10959 10961 10962 10965 10967 10969 10971 10974 10976 10978 10980 10982 10984 10985 10987 10988 10990 10991 10993 10994 10995 10997 10998 10998 10999 11000 11002 11004 11005 11005 11006 11007 11008 11009 11010 11010 11011
10589 10602 10613 10624 10634 10641 10649 10665 10679 10688 10703 10722 10739 10749 10760 10773 10783 10790 10798 10806 10814 10823 10832 10837 10840 10844 10846 10842 10842 10852 10863 10871 10878 10884 10890 10896 10902 10907 10911 10916 10921 10926 10931 10936 10940 10944 10947 10950 10953 10955 10956 10958 10961 10963 10965 10968 10971 10973 10975 10977 10980 10982 10983 10984 10985 10987 10989 10990 10991 10992 10993 10994 10995 10996 10997 10998 11000 11002 11002 11003 11004 11005 11006 11007 11007 11008
10577 10589 10601 10612 10622 10630 10640 10656 10670 10681 10695 10712 10727 10739 10751 10763 10774 10782 10791 10799 10806 10815 10823 10829 10838 10842 10836 10834 10842 10848 10854 10864 10872 10878 10883 10889 10897 10903 10908 10912 10917 10921 10926 10930 10934 10939 10942 10946 10949 10950 10952 10954 10956 10959 10961 10964 10967 10970 10972 10974 10976 10978 10979 10981 10982 10984 10985 10987 10988 10989 10990 10991 10992 10993 10994 10995 10997 10998 10999 10999 11000 11002 11002 11003 11004 11005
10567 10577 10589 10601 10612 10622 10633 10646 10660 10671 10684 10699 10714 10725 10737 10751 10763 10773 10782 10790 10799 10808 10814 10822 10834 10834 10825 10829 10840 10840 10841 10852 10864 10873 10879 10884 10891 10898 10903 10907 10912 10916 10921 10925 10929 10934 10937 10940 10943 10946 10947 10949 10952 10954 10957 10960 10963 10965 10968 10970 10972 10974 10976 10977 10979 10981 10982 10983 10984 10986 10987 10988 10989 10990 10991 10992 10993 10994 10995 10996 10997 10998 10998 10999 11000 11001
10556 10566 10580 10593 10603 10612 10622 10635 10649 10659 10670 10685 10700 10713 10726 10740 10753 10763 10772 10781 10790 10799 10806 10817 10828 10823 10816 10825 10835 10832 10834 10844 10855 10867 10874 10878 10884 10890 10895 10901 10905 10910 10915 10920 10924 10928 10932 10935 10938 10941 10943 10944 10946 10949 10953 10956 10958 10961 10964 10966 10968 10970 10972 10974 10976 10977 10978 10980 10981 10983 10984 10985 10986 10987 10987 10988 10989 10990 10991 10992 10993 10993 10994 10995 10996 10997
10546 10557 10570 10581 10590 10599 10609 10623 10636 10647 10658 10672 10687 10702 10716 10730 10743 10754 10762 10771 10782 10791 10800 10810 10816 10811 10810 10821 10828 10828 10830 10836 10847 10860 10867 10871 10877 10883 10888 10893 10897 10903 10909 10914 10919 10923 10926 10929 10933 10936 10937 10938 10941 10944 10948 10951 10954 10957 10960 10962 10964 10966 10968 10970 10972 10973 10975 10976 10978 10979 10980 10982 10982 10983 10984 10984 10985 10986 10987 10988 10989 10989 10990 10991 10991 10992
10535 10547 10557 10567 10578 10587 10597 10611 10625 10636 10647 10661 10677 10694 10708 10721 10734 10744 10754 10764 10775 10783 10790 10799 10805 10806 10809 10816 10819 10822 10826 10831 10840 10852 10859 10865 10871 10876 10881 10886 10890 10896 10901 10907 10912 10916 10919 10923 10927 10929 10931 10932 10935 10939 10943 10946 10949 10952 10955 10957 10960 10962 10964 10966 10968 10969 10971 10973 10974 10975 10976 10977 10978 10979 10980 10980 10981 10982 10983 10984 10984 10985 10985 10986 10987 10988
10524 10534 10545 10557 10568 10575 10586 10602 10616 10626 10638 10654 10671 10686 10697 10709 10721 10732 10745 10757 10765 10772 10781 10791 10799 10802 10803 10804 10807 10814 10820 10824 10832 10841 10849 10857 10863 10869 10875 10880 10884 10889 10895 10899 10904 10908 10913 10917 10920 10921 10923 10926 10930 10934 10938 10942 10945 10948 10951 10954 10956 10958 10960 10962 10964 10966 10967 10968 10970 10971 10972 10973 10974 10974 10975 10976 10977 10978 10979 10979 10979 10980 10981 10982 10983 10984
10513 10523 10534 10546 10555 10562 10576 10592 10604 10616 10632 10649 10664 10676 10687 10699 10711 10723 10738 10748 10755 10764 10774 10784 10791 10792 10792 10793 10799 10808 10812 10816 10825 10833 10840 10847 10855 10862 10869 10874 10879 10884 10888 10892 10897 10902 10907 10911 10912 10913 10917 10921 10925 10930 10934 10938 10941 10944 10947 10950 10953 10955 10956 10958 10960 10961 10963 10964 10965 10967 10967 10968 10969 10970 10971 10971 10972 10973 10973 10974 10974 10975 10976 10977 10978 10979
10503 10513 10524 10534 10543 10552 10566 10579 10593 10610 10627 10643 10655 10665 10674 10687 10700 10714 10728 10737 10745 10756 10766 10775 10781 10783 10784 10788 10793 10799 10805 10810 10818 10826 10833 10841 10850 10857 10863 10868 10873 10878 10881 10886 10892 10897 10901 10902 10904 10907 10912 10917 10921 10925 10929 10933 10936 10939 10942 10945 10948 10950 10952 10954 10955 10956 10958 10959 10961 10961 10962 10963 10964 10965 10966 10966 10967 10967 10968 10968 10969 10970 10971 10972 10974 10975
10495 10504 10514 10524 10534 10543 10555 10569 10586 10602 10618 10632 10643 10649 10659 10675 10690 10704 10717 10727 10739 10750 10758 10767 10774 10775 10778 10782 10785 10790 10798 10805 10811 10819 10829 10838 10846 10851 10857 10862 10867 10871 10876 10882 10887 10890 10893 10896 10900 10905 10909 10913 10916 10919 10923 10927 10931 10934 10937 10940 10943 10945 10947 10949 10950 10951 10953 10954 10955 10956 10957 10958 10959 10960 10961 10961 10962 10962 10962 10963 10964 10965 10967 10968 10969 10970
10487 10495 10505 10516 10526 10534 10545 10560 10576 10592 10608 10622 10630 10635 10647 10665 10681 10695 10708 10720 10732 10741 10750 10760 10766 10767 10771 10775 10777 10781 10791 10798 10805 10816 10828 10836 10840 10844 10850 10855 10860 10866 10871 10875 10880 10884 10888 10893 10897 10901 10905 10907 10910 10913 10917 10922 10926 10929 10932 10935 10937 10939 10942 10944 10944 10946 10948 10949 10949 10951 10952 10953 10954 10954 10955 10956 10956 10956 10957 10958 10959 10960 10962 10963 10964 10965
10480 10488 10497 10509 10518 10526 10537 10552 10567 10583 10599 10611 10617 10625 10638 10655 10671 10685 10697 10709 10723 10734 10744 10752 10757 10759 10763 10767 10769 10774 10784 10795 10805 10817 10826 10829 10832 10837 10843 10848 10854 10859 10863 10868 10873 10879 10884 10889 10893 10897 10900 10902 10905 10908 10912 10915 10920 10923 10925 10928 10931 10934 10936 10937 10938 10939 10941 10942 10944 10946 10947 10948 10949 10949 10950 10950 10951 10951 10952 10953 10954 10955 10957 10957 10959 10960
10474 10483 10492 10503 10512 10520 10530 10544 10559 10573 10587 10598 10606 10615 10628 10645 10662 10673 10685 10701 10718 10729 10737 10745 10749 10750 10754 10759 10762 10768 10780 10794 10805 10812 10816 10819 10824 10831 10836 10841 10847 10851 10855 10862 10868 10874 10879 10884 10888 10891 10894 10896 10899 10902 10905 10909 10913 10916 10919 10922 10925 10927 10929 10929 10931 10932 10934 10937 10939 10941 10942 10942 10943 10944 10944 10945 10945 10946 10947 10948 10950 10951 10951 10952 10953 10954
10467 10477 10487 10496 10504 10511 10521 10535 10548 10562 10575 10587 10596 10605 10618 10635 10649 10661 10678 10698 10713 10720 10728 10737 10741 10742 10746 10751 10755 10762 10776 10790 10799 10804 10807 10812 10818 10823 10828 10833 10838 10843 10850 10857 10862 10868 10873 10877 10881 10885 10887 10891 10894 10896 10899 10903 10906 10909 10913 10917 10919 10920 10920 10922 10924 10926 10929 10932 10933 10934 10935 10936 10937 10938 10939 10940 10941 10942 10943 10944 10944 10945 10946 10946 10947 10949
10460 10469 10479 10487 10495 10502 10513 10526 10539 10551 10564 10576 10587 10598 10611 10625 10639 10656 10677 10693 10702 10709 10719 10727 10730 10733 10738 10743 10747 10757 10771 10783 10791 10797 10801 10805 10810 10815 10820 10826 10831 10837 10844 10851 10856 10862 10866 10871 10875 10879 10882 10885 10888 10891 10895 10898 10900 10904 10907 10909 10910 10911 10914 10916 10919 10921 10923 10926 10927 10928 10929 10930 10932 10933 10934 10935 10936 10936 10937 10938 10939 10940 10940 10941 10942 10943
10454 10461 10469 10478 10485 10493 10503 10515 10528 10542 10556 10568 10580 10591 10603 10617 10635 10655 10671 10681 10690 10701 10710 10716 10720 10724 10729 10734 10741 10752 10766 10776 10784 10790 10794 10797 10801 10806 10811 10818 10824 10831 10838 10844 10850 10855 10859 10864 10868 10872 10876 10879 10883 10886 10889 10891 10894 10897 10899 10900 10902 10905 10908 10911 10913 10915 10917 10919 10920 10922 10923 10925 10927 10928 10929 10929 10930 10931 10932 10933 10934 10934 10935 10936 10937 10938
10449 10456 10463 10469 10476 10483 10493 10507 10522 10536 10549 10561 10573 10584 10597 10613 10631 10647 10658 10668 10680 10691 10699 10706 10711 10715 10720 10726 10734 10745 10759 10769 10777 10783 10787 10790 10792 10797 10803 10811 10818 10825 10832 10837 10843 10848 10852 10857 10861 10865 10869 10873 10876 10880 10882 10884 10887 10889 10890 10892 10895 10900 10903 10905 10906 10909 10911 10912 10914 10916 10918 10920 10921 10922 10923 10924 10925 10925 10926 10927 10928 10929 10930 10931 10932 10933
10443 10450 10456 10462 10468 10477 10489 10505 10518 10529 10540 10551 10564 10578 10593 10608 10623 10637 10649 10660 10672 10681 10689 10696 10701 10706 10712 10718 10726 10738 10752 10762 10769 10776 10780 10781 10783 10789 10797 10805 10812 10819 10825 10830 10835 10840 10845 10849 10854 10859 10863 10866 10869 10872 10875 10877 10880 10881 10883 10886 10891 10895 10897 10898 10900 10902 10904 10907 10909 10911 10913 10914 10915 10916 10917 10918 10919 10920 10920 10921 10922 10923 10924 10925 10926 10927
10438 10444 10450 10456 10463 10471 10482 10497 10511 10521 10531 10543 10555 10570 10585 10600 10614 10628 10641 10652 10664 10673 10680 10687 10692 10697 10703 10710 10719 10731 10745 10755 10763 10769 10771 10772 10776 10784 10791 10798 10805 10812 10817 10822 10828 10833 10838 10842 10848 10852 10856 10859 10862 10865 10868 10870 10872 10874 10877 10882 10886 10888 10890 10892 10894 10896 10899 10901 10903 10905 10907 10908 10909 10910 10911 10912 10913 10914 10915 10916 10916 10917 10918 10919 10920 10921
10433 10439 10445 10453 10461 10467 10475 10489 10503 10514 10525 10537 10550 10563 10577 10590 10605 10619 10632 10643 10655 10665 10672 10678 10684 10688 10694 10702 10712 10725 10738 10749 10756 10760 10762 10765 10771 10779 10785 10791 10798 10804 10810 10815 10820 10825 10830 10835 10840 10844 10848 10851 10855 10858 10861 10863 10865 10868 10872 10876 10879 10882 10884 10886 10887 10890 10893 10895 10898 10900 10901 10901 10902 10904 10906 10907 10908 10908 10909 10910 10910 10910 10911 10912 10913 10914
10430 10436 10442 10449 10457 10464 10474 10485 10496 10506 10518 10532 10545 10557 10570 10583 10596 10609 10623 10634 10645 10654 10663 10670 10676 10680 10686 10695 10705 10718 10731 10741 10748 10753 10755 10759 10766 10772 10778 10784 10791 10796 10802 10807 10813 10818 10822 10827 10832 10836 10840 10844 10847 10851 10854 10856 10857 10861 10866 10870 10873 10875 10877 10879 10881 10884 10887 10889 10892 10893 10894 10895 10897 10898 10900 10901 10902 10902 10903 10903 10903 10904 10904 10905 10906 10907
10427 10433 10439 10446 10453 10461 10472 10483 10492 10501 10512 10526 10538 10550 10563 10576 10588 10601 10614 10627 10637 10647 10656 10663 10667 10673 10680 10688 10698 10711 10723 10733 10742 10747 10749 10752 10759 10765 10770 10777 10783 10789 10794 10800 10805 10810 10815 10819 10824 10828 10832 10836 10840 10844 10846 10848 10850 10854 10859 10863 10865 10867 10870 10873 10875 10878 10881 10883 10885 10887 10888 10890 10891 10892 10893 10895 10895 10896 10897 10897 10897 10898 10898 10900 10901 10901
10425 10430 10436 10443 10451 10459 10468 10478 10488 10498 10508 10520 10531 10544 10557 10570 10581 10594 10608 10619 10629 10640 10649 10654 10659 10665 10673 10681 10691 10704 10715 10726 10735 10742 10743 10746 10754 10760 10764 10770 10776 10781 10786 10792 10797 10803 10808 10812 10817 10821 10825 10829 10834 10837 10839 10840 10842 10847 10852 10856 10858 10860 10863 10866 10869 10872 10875 10877 10879 10881 10882 10884 10885 10886 10887 10888 10889 10890 10891 10891 10892 10892 10893 10894 10895 10896
10424 10429 10434 10441 10448 10455 10463 10473 10484 10494 10504 10514 10526 10539 10552 10566 10577 10588 10600 10611 10621 10630 10638 10644 10650 10657 10665 10674 10684 10696 10707 10717 10728 10735 10737 10741 10748 10754 10757 10763 10769 10774 10779 10784 10790 10795 10801 10806 10810 10814 10818 10822 10826 10829 10831 10833 10835 10839 10844 10848 10851 10853 10856 10860 10863 10866 10868 10870 10872 10874 10876 10877 10878 10879 10880 10881 10882 10884 10884 10885 10886 10887 10888 10889 10889 10890